Regional Weather Roundup
Issued by NWS Boston, MA

Current Version | Previous Version | Text Only | Print | Product List | Glossary Off
Versions: 1 2 3 4 5 6 7 8 9 10 11 12 13 14 15 16 17 18 19 20 21 22 23 24 25 26 27 28 29 30 31 32 33 34 35 36 37 38 39 40 41 42 43 44 45 46 47 48 49 50
778 ASUS41 KBOX 180010 RWRBOX REGIONAL WEATHER ROUNDUP NATIONAL WEATHER SERVICE BOSTON/NORTON MA 800 PM EDT SUN JUN 17 2018 NOTE: "FAIR" INDICATES FEW OR NO CLOUDS BELOW 12,000 FEET WITH NO SIGNIFICANT WEATHER AND/OR OBSTRUCTIONS TO VISIBILITY. MAZALL-180100- EASTERN MASSACHUSETTS CITY SKY/WX TMP DP RH WIND PRES REMARKS BOSTON CLOUDY 64 57 78 E6 30.06F 6HR MIN TEMP: 64; 6HR MAX TEMP: 74; BEVERLY FAIR 68 54 60 S3 30.05F LAWRENCE FAIR 77 51 40 VRB5 30.07F BEDFORD FAIR 72 53 51 E6 30.04F BLUE HILL N/A 75 53 46 S13G20 30.07S NORWOOD FAIR 78 55 44 S8 30.05S MARSHFIELD FAIR 75 55 50 S6 30.06F PLYMOUTH FAIR 73 53 49 S7 30.08S TAUNTON FAIR 74 56 53 SE6 30.07S NEW BEDFORD FAIR 71 60 68 S8 30.08S $$ MAZALL-180100- CAPE COD AND THE ISLANDS CITY SKY/WX TMP DP RH WIND PRES REMARKS FALMOUTH FAIR 70 55 60 SW6 30.10S HYANNIS FAIR 70 59 68 S6 30.08S CHATHAM FAIR 67 58 72 SW7 30.11S PROVINCETOWN FAIR 71 56 58 S9 30.09S NANTUCKET FAIR 62 58 86 S5 30.11R MARTHAS VNYRD FAIR 67 60 78 SW9 30.09F $$ MAZALL-180100- CENTRAL AND WESTERN MASSACHUSETTS CITY SKY/WX TMP DP RH WIND PRES REMARKS WORCESTER FAIR 78 53 41 SW3 30.08S 6HR MIN TEMP: 78; 6HR MAX TEMP: 85; FITCHBURG FAIR 77 56 48 E5 30.06R ORANGE FAIR 76 58 53 CALM 30.05F SPRINGFIELD MOCLDY 80 54 40 S12 30.02S WESTFIELD FAIR 77 60 55 S3 30.02F NORTH ADAMS FAIR 72 60 66 CALM 30.04F PITTSFIELD FAIR 77 51 40 CALM 30.06F $$ RIZALL-180100- RHODE ISLAND CITY SKY/WX TMP DP RH WIND PRES REMARKS PROVIDENCE MOCLDY 76 55 48 S8 30.07S 6HR MIN TEMP: 76; 6HR MAX TEMP: 85; NEWPORT FAIR 68 61 78 S6 30.07S BLOCK ISLAND FAIR 66 62 87 S12 30.09S SMITHFIELD FAIR 75 56 51 VRB6 30.08R WESTERLY FAIR 71 61 70 S7 30.09S $$ CTZALL-180100- CONNECTICUT CITY SKY/WX TMP DP RH WIND PRES REMARKS BRADLEY INTL MOCLDY 82 56 40 S12 30.03S 6HR MIN TEMP: 82; 6HR MAX TEMP: 92; HARTFORD FAIR 79 57 46 S8 30.04S BRIDGEPORT FAIR 77 55 46 S12 30.06S DANBURY CLEAR 79 55 44 VRB7 30.07S GROTON FAIR 70 58 65 CALM 30.07S NEW HAVEN FAIR 73 59 61 S8 30.07S CHESTER FAIR 73 57 56 S5 30.08S MERIDEN FAIR 76 57 51 S5 30.05S WILLIMANTIC FAIR 79 57 46 S7 30.06S OXFORD FAIR 76 56 49 S7 30.09S $$ MEZ002-015-021-024-NHZ003-005-008-011-012-014-VTZ005-008-180100- NORTHERN NEW ENGLAND CITY SKY/WX TMP DP RH WIND PRES REMARKS PORTLAND ME FAIR 56 53 90 E8 30.09S 6HR MIN TEMP: 56; 6HR MAX TEMP: 65; BANGOR ME CLOUDY 61 49 64 S13 30.07F CONCORD NH FAIR 74 56 53 SE8 30.05R MANCHESTER NH MOCLDY 78 54 43 SE6 30.04S NASHUA NH FAIR 78 53 41 SE7 30.05F PORTSMOUTH NH CLOUDY 60 56 85 E5 30.06F JAFFREY NH FAIR 76 59 55 CALM 30.07F KEENE NH FAIR 77 59 53 S3 30.03F BURLINGTON VT MOCLDY 81 46 29 S8 29.96F MT. WASHINGTON PTCLDY 55 43 62 SW21 N/A $$ NYZ052-076-180100- EASTERN NEW YORK CITY SKY/WX TMP DP RH WIND PRES REMARKS ALBANY MOCLDY 85 53 33 SE5 30.00F 6HR MIN TEMP: 85; 6HR MAX TEMP: 90; NEW YORK CITY MOCLDY 82 53 36 S12 30.05S 6HR MIN TEMP: 82; 6HR MAX TEMP: 91; $$ ANZALL-180100- MARINE OBSERVATIONS STATION/POSITION TIME TEMP WIND PRES VSBY WAVE AIR SEA DIR/SP/G HT/PER (UTC) (F) (DEG/KT/KT) (MB) (MI) (FT/S) BOSTON BUOY 2350 64 61 110/ 10/ 12 1017.7F 1/ 8 BUZZARDS BAY 2300 65 200/ 13/ 13 1019.5R NANTUCKET SOUND 2350 64 65 190/ 8/ 10 1019.0F 0 MASS BAY-STELLWA 2304 61 61 1016.9F 1/ 8 ISLE OF SHOALS 2300 58 50/ 8/ 9 1018.2F S OF BLOCK IS 2343 62 N/A 1/ 8 $$ ......................KEY......................... SKY/WX - SKY CONDITION/PRESENT WEATHER TMP - TEMPERATURE IN FAHRENHEIT DWPT - DEWPOINT IN FAHRENHEIT RH - RELATIVE HUMIDITY IN PERCENT WIND - DIRECTION AND SPEED IN MPH PRES - MEAN SEA LEVEL PRESSURE IN INCHES OF HG WCI - WIND CHILL INDEX VSB - VISIBILITY IN MILES HX - HEAT INDEX TC - TEMPERATURE IN CELSIUS VRB - VARIABLE WIND DIRECTION N/A - NOT AVAILABLE

USA.gov is the U.S. government's official web portal to all federal, state and local government web resources and services.